When you browse on this site, cookies collect data to enhance your experience and personalize the content and advertising you see.
Visit our Privacy Policy to learn more. By continuing to use the site, you agree to this use of cookies and data.
  • In France
  • List of Countries
  • For 7 days
  • Water Temperature
  • Weather Map
  • Weather Widgets
  • user-avatar
    Login

    Hourly Weather Ondjiwa

    Today, 24 February, Monday

    Time Temperature Precipitation Wind Pressure Humidity
    00:00 +23°C° 0 mm 2 mps 666 mmHg 66%
    01:00 +21°C° 0 mm 2 mps 665 mmHg 64%
    02:00 +21°C° 0 mm 2 mps 665 mmHg 64%
    03:00 +20°C° 0 mm 2 mps 665 mmHg 64%
    04:00 +20°C° 0 mm 2 mps 665 mmHg 63%
    05:00 +20°C° 0 mm 2 mps 665 mmHg 62%
    06:00 +20°C° 0 mm 2 mps 666 mmHg 62%
    07:00 +20°C° 0 mm 3 mps 666 mmHg 61%
    08:00 +24°C° 0 mm 3 mps 667 mmHg 51%
    09:00 +26°C° 0 mm 3 mps 668 mmHg 41%
    10:00 +29°C° 0 mm 3 mps 668 mmHg 32%
    11:00 +30°C° 0 mm 3 mps 668 mmHg 29%
    12:00 +33°C° 0 mm 3 mps 668 mmHg 27%
    13:00 +34°C° 0 mm 3 mps 667 mmHg 24%
    14:00 +34°C° 0 mm 3 mps 667 mmHg 25%
    15:00 +34°C° 0 mm 3 mps 666 mmHg 25%
    16:00 +34°C° 0 mm 3 mps 665 mmHg 25%
    17:00 +31°C° 0 mm 2 mps 665 mmHg 29%
    18:00 +29°C° 0 mm 2 mps 665 mmHg 33%
    19:00 +27°C° 0 mm 1 mps 665 mmHg 36%
    20:00 +27°C° 0 mm 1 mps 666 mmHg 39%
    21:00 +26°C° 0 mm 2 mps 666 mmHg 41%
    22:00 +25°C° 0 mm 3 mps 666 mmHg 44%
    23:00 +24°C° 0 mm 3 mps 666 mmHg 47%

    Tomorrow, 25 February, Tuesday

    Time Temperature Precipitation Wind Pressure Humidity
    00:00 +23°C° 0 mm 4 mps 666 mmHg 50%
    01:00 +22°C° 0 mm 4 mps 666 mmHg 53%
    02:00 +22°C° 0 mm 4 mps 666 mmHg 53%
    03:00 +21°C° 0 mm 4 mps 665 mmHg 53%
    04:00 +21°C° 0 mm 3 mps 665 mmHg 53%
    05:00 +21°C° 0 mm 3 mps 665 mmHg 54%
    06:00 +21°C° 0 mm 2 mps 666 mmHg 56%
    07:00 +21°C° 0 mm 2 mps 666 mmHg 57%
    08:00 +25°C° 0 mm 2 mps 667 mmHg 51%
    09:00 +27°C° 0 mm 2 mps 667 mmHg 45%
    10:00 +30°C° 0 mm 3 mps 667 mmHg 39%
    11:00 +31°C° 0 mm 2 mps 667 mmHg 35%
    12:00 +32°C° 0 mm 2 mps 666 mmHg 32%
    13:00 +35°C° 0 mm 2 mps 666 mmHg 28%
    14:00 +35°C° 0 mm 2 mps 665 mmHg 27%
    15:00 +35°C° 0 mm 3 mps 664 mmHg 26%
    16:00 +35°C° 0 mm 3 mps 664 mmHg 25%
    17:00 +33°C° 0 mm 3 mps 664 mmHg 28%
    18:00 +30°C° 0 mm 2 mps 663 mmHg 31%
    19:00 +28°C° 0 mm 2 mps 663 mmHg 35%
    20:00 +27°C° 0 mm 2 mps 664 mmHg 35%
    21:00 +26°C° 0 mm 2 mps 665 mmHg 36%
    22:00 +26°C° 0 mm 2 mps 665 mmHg 36%
    23:00 +25°C° 0 mm 3 mps 665 mmHg 41%

    Day after tomorrow, 26 February, Wednesday

    Time Temperature Precipitation Wind Pressure Humidity
    00:00 +24°C° 0 mm 3 mps 665 mmHg 46%
    01:00 +22°C° 0 mm 4 mps 665 mmHg 51%
    02:00 +22°C° 0 mm 3 mps 665 mmHg 53%
    03:00 +21°C° 0 mm 3 mps 664 mmHg 55%
    04:00 +20°C° 0 mm 3 mps 664 mmHg 57%
    05:00 +20°C° 0 mm 2 mps 664 mmHg 60%
    06:00 +20°C° 0 mm 2 mps 665 mmHg 63%
    07:00 +20°C° 0 mm 2 mps 665 mmHg 67%
    08:00 +24°C° 0 mm 2 mps 666 mmHg 60%
    09:00 +26°C° 0 mm 2 mps 666 mmHg 54%
    10:00 +29°C° 0 mm 2 mps 667 mmHg 47%
    11:00 +30°C° 0 mm 2 mps 667 mmHg 41%
    12:00 +32°C° 0 mm 2 mps 666 mmHg 35%
    13:00 +35°C° 0 mm 2 mps 666 mmHg 29%
    14:00 +35°C° 0 mm 2 mps 665 mmHg 28%
    15:00 +35°C° 0 mm 2 mps 665 mmHg 26%
    16:00 +35°C° 0 mm 3 mps 664 mmHg 25%
    17:00 +32°C° 0 mm 2 mps 664 mmHg 28%
    18:00 +30°C° 0 mm 2 mps 664 mmHg 31%
    19:00 +28°C° 0 mm 1 mps 664 mmHg 34%
    20:00 +27°C° 0 mm 2 mps 664 mmHg 35%
    21:00 +25°C° 0 mm 2 mps 665 mmHg 36%
    22:00 +24°C° 0 mm 3 mps 665 mmHg 37%
    23:00 +22°C° 0 mm 3 mps 665 mmHg 39%

    27 February, Thursday

    Time Temperature Precipitation Wind Pressure Humidity
    00:00 +21°C° 0 mm 2 mps 665 mmHg 41%
    01:00 +21°C° 0 mm 2 mps 665 mmHg 43%
    02:00 +20°C° 0 mm 2 mps 665 mmHg 50%
    03:00 +20°C° 0 mm 2 mps 665 mmHg 57%
    04:00 +19°C° 0 mm 2 mps 665 mmHg 65%
    05:00 +19°C° 0 mm 2 mps 665 mmHg 65%
    06:00 +19°C° 0 mm 2 mps 666 mmHg 66%
    07:00 +20°C° 0 mm 2 mps 666 mmHg 67%
    08:00 +23°C° 0 mm 2 mps 667 mmHg 58%
    09:00 +26°C° 0 mm 2 mps 667 mmHg 49%
    10:00 +29°C° 0 mm 2 mps 668 mmHg 40%
    11:00 +31°C° 0 mm 2 mps 667 mmHg 34%
    12:00 +32°C° 0 mm 1 mps 667 mmHg 29%
    13:00 +34°C° 0 mm 1 mps 667 mmHg 23%
    14:00 +35°C° 0 mm 2 mps 666 mmHg 22%
    15:00 +35°C° 0 mm 2 mps 666 mmHg 20%
    16:00 +35°C° 0 mm 2 mps 665 mmHg 19%
    17:00 +32°C° 0 mm 2 mps 665 mmHg 21%
    18:00 +29°C° 0 mm 1 mps 665 mmHg 24%
    19:00 +27°C° 0 mm 1 mps 665 mmHg 26%
    20:00 +26°C° 0 mm 2 mps 665 mmHg 27%
    21:00 +25°C° 0 mm 2 mps 666 mmHg 28%
    22:00 +24°C° 0 mm 3 mps 666 mmHg 29%
    23:00 +22°C° 0 mm 3 mps 666 mmHg 31%

    28 February, Friday

    Time Temperature Precipitation Wind Pressure Humidity
    00:00 +21°C° 0 mm 3 mps 666 mmHg 32%
    01:00 +20°C° 0 mm 3 mps 666 mmHg 34%
    02:00 +19°C° 0 mm 2 mps 665 mmHg 39%
    03:00 +19°C° 0 mm 2 mps 665 mmHg 43%
    04:00 +19°C° 0 mm 1 mps 665 mmHg 48%
    05:00 +19°C° 0 mm 1 mps 666 mmHg 53%
    06:00 +19°C° 0 mm 2 mps 666 mmHg 59%
    07:00 +19°C° 0 mm 2 mps 667 mmHg 64%
    08:00 +23°C° 0 mm 2 mps 667 mmHg 54%
    09:00 +26°C° 0 mm 2 mps 668 mmHg 44%
    10:00 +30°C° 0 mm 3 mps 669 mmHg 34%
    11:00 +31°C° 0 mm 2 mps 668 mmHg 28%
    12:00 +34°C° 0 mm 2 mps 668 mmHg 23%
    13:00 +35°C° 0 mm 2 mps 668 mmHg 17%
    14:00 +35°C° 0 mm 2 mps 667 mmHg 17%
    15:00 +35°C° 0 mm 2 mps 667 mmHg 16%
    16:00 +35°C° 0 mm 2 mps 666 mmHg 15%
    17:00 +32°C° 0 mm 2 mps 666 mmHg 18%
    18:00 +30°C° 0 mm 1 mps 666 mmHg 20%
    19:00 +27°C° 0 mm 1 mps 665 mmHg 23%
    20:00 +26°C° 0 mm 1 mps 666 mmHg 24%
    21:00 +25°C° 0 mm 1 mps 666 mmHg 26%
    22:00 +25°C° 0 mm 2 mps 667 mmHg 27%
    23:00 +24°C° 0 mm 2 mps 666 mmHg 33%

    29 February, Saturday

    Time Temperature Precipitation Wind Pressure Humidity
    00:00 +23°C° 0 mm 2 mps 666 mmHg 39%
    01:00 +23°C° 0 mm 2 mps 666 mmHg 46%
    02:00 +21°C° 0 mm 2 mps 666 mmHg 50%
    03:00 +21°C° 0 mm 2 mps 666 mmHg 54%
    04:00 +20°C° 0 mm 2 mps 666 mmHg 58%
    05:00 +22°C° 0 mm 1 mps 666 mmHg 58%
    06:00 +22°C° 0 mm 1 mps 667 mmHg 58%
    07:00 +22°C° 0 mm 1 mps 667 mmHg 58%
    08:00 +25°C° 0 mm 2 mps 668 mmHg 52%
    09:00 +28°C° 0 mm 2 mps 668 mmHg 46%
    10:00 +30°C° 0 mm 2 mps 669 mmHg 40%
    11:00 +33°C° 0 mm 3 mps 669 mmHg 35%
    12:00 +34°C° 0 mm 3 mps 668 mmHg 30%
    13:00 +36°C° 0 mm 3 mps 668 mmHg 26%
    14:00 +35°C° 0 mm 3 mps 667 mmHg 26%
    15:00 +35°C° 0 mm 4 mps 667 mmHg 26%
    16:00 +35°C° 0 mm 4 mps 666 mmHg 27%
    17:00 +33°C° 0 mm 3 mps 666 mmHg 31%
    18:00 +30°C° 0 mm 3 mps 666 mmHg 35%
    19:00 +29°C° 0 mm 2 mps 666 mmHg 40%
    20:00 +27°C° 0 mm 3 mps 666 mmHg 49%
    21:00 +26°C° 0 mm 3 mps 667 mmHg 59%
    22:00 +23°C° 0 mm 4 mps 667 mmHg 68%
    23:00 +24°C° 0.1 mm 3 mps 667 mmHg 72%
    Show more